• In Uzbekistan
  • List of Countries
  • For 7 days
  • Water Temperature
  • Weather Map
  • Weather Widgets
  • user-avatar
    Login

    Hourly Weather Punakha

    Today, 15 December, Sunday

    Time Temperature Precipitation Wind Pressure Humidity
    00:00 +3°C° 0 mm 2 mps 582 mmHg 83%
    01:00 +2°C° 0 mm 2 mps 582 mmHg 80%
    02:00 +2°C° 0 mm 2 mps 581 mmHg 77%
    03:00 +2°C° 0 mm 2 mps 581 mmHg 73%
    04:00 +1°C° 0 mm 2 mps 581 mmHg 70%
    05:00 +1°C° 0 mm 2 mps 581 mmHg 67%
    06:00 +2°C° 0 mm 2 mps 582 mmHg 64%
    07:00 +4°C° 0 mm 2 mps 583 mmHg 57%
    08:00 +8°C° 0 mm 1 mps 585 mmHg 50%
    09:00 +10°C° 0 mm 1 mps 586 mmHg 44%
    10:00 +10°C° 0 mm 2 mps 586 mmHg 40%
    11:00 +13°C° 0 mm 2 mps 586 mmHg 36%
    12:00 +13°C° 0 mm 3 mps 586 mmHg 35%
    13:00 +12°C° 0.1 mm 3 mps 585 mmHg 42%
    14:00 +11°C° 0.1 mm 3 mps 584 mmHg 49%
    15:00 +10°C° 0.1 mm 3 mps 583 mmHg 55%
    16:00 +9°C° 0.2 mm 2 mps 582 mmHg 67%
    17:00 +7°C° 0.2 mm 2 mps 582 mmHg 80%
    18:00 +6°C° 0 mm 1 mps 581 mmHg 92%
    19:00 +5°C° 0.1 mm 1 mps 581 mmHg 90%
    20:00 +5°C° 0.1 mm 1 mps 582 mmHg 88%
    21:00 +4°C° 0.1 mm 1 mps 582 mmHg 86%
    22:00 +4°C° 0 mm 1 mps 581 mmHg 83%
    23:00 +4°C° 0 mm 1 mps 581 mmHg 81%

    Tomorrow, 16 December, Monday

    Time Temperature Precipitation Wind Pressure Humidity
    00:00 +3°C° 0 mm 1 mps 581 mmHg 78%
    01:00 +2°C° 0 mm 2 mps 581 mmHg 76%
    02:00 +2°C° 0 mm 2 mps 581 mmHg 73%
    03:00 +2°C° 0 mm 2 mps 580 mmHg 71%
    04:00 +1°C° 0 mm 2 mps 580 mmHg 67%
    05:00 +1°C° 0 mm 2 mps 580 mmHg 63%
    06:00 +1°C° 0 mm 2 mps 580 mmHg 59%
    07:00 +3°C° 0 mm 2 mps 582 mmHg 51%
    08:00 +7°C° 0 mm 1 mps 583 mmHg 44%
    09:00 +9°C° 0 mm 1 mps 585 mmHg 36%
    10:00 +10°C° 0 mm 1 mps 585 mmHg 34%
    11:00 +12°C° 0 mm 2 mps 585 mmHg 32%
    12:00 +13°C° 0 mm 2 mps 585 mmHg 29%
    13:00 +12°C° 0 mm 3 mps 584 mmHg 32%
    14:00 +11°C° 0 mm 3 mps 584 mmHg 34%
    15:00 +11°C° 0 mm 3 mps 583 mmHg 36%
    16:00 +8°C° 0 mm 2 mps 582 mmHg 51%
    17:00 +6°C° 0 mm 2 mps 581 mmHg 67%
    18:00 +4°C° 0 mm 1 mps 580 mmHg 83%
    19:00 +4°C° 0 mm 1 mps 581 mmHg 80%
    20:00 +4°C° 0 mm 1 mps 581 mmHg 77%
    21:00 +4°C° 0 mm 1 mps 582 mmHg 74%
    22:00 +3°C° 0 mm 1 mps 582 mmHg 73%
    23:00 +3°C° 0 mm 1 mps 581 mmHg 72%

    Day after tomorrow, 17 December, Tuesday

    Time Temperature Precipitation Wind Pressure Humidity
    00:00 +2°C° 0 mm 2 mps 581 mmHg 71%
    01:00 +2°C° 0 mm 2 mps 581 mmHg 68%
    02:00 +1°C° 0 mm 2 mps 581 mmHg 65%
    03:00 +1°C° 0 mm 2 mps 580 mmHg 61%
    04:00 +1°C° 0 mm 2 mps 580 mmHg 58%
    05:00 -1°C° 0 mm 2 mps 580 mmHg 55%
    06:00 -1°C° 0 mm 2 mps 580 mmHg 52%
    07:00 +2°C° 0 mm 2 mps 582 mmHg 46%
    08:00 +6°C° 0 mm 1 mps 583 mmHg 40%
    09:00 +8°C° 0 mm 1 mps 585 mmHg 34%
    10:00 +9°C° 0 mm 1 mps 585 mmHg 33%
    11:00 +9°C° 0 mm 2 mps 585 mmHg 32%
    12:00 +12°C° 0 mm 2 mps 585 mmHg 31%
    13:00 +12°C° 0 mm 2 mps 584 mmHg 33%
    14:00 +10°C° 0 mm 2 mps 583 mmHg 36%
    15:00 +10°C° 0 mm 2 mps 583 mmHg 39%
    16:00 +8°C° 0 mm 2 mps 582 mmHg 53%
    17:00 +5°C° 0 mm 2 mps 581 mmHg 67%
    18:00 +3°C° 0 mm 2 mps 580 mmHg 80%
    19:00 +4°C° 0 mm 1 mps 581 mmHg 73%
    20:00 +4°C° 0 mm 1 mps 581 mmHg 66%
    21:00 +4°C° 0 mm 1 mps 581 mmHg 59%
    22:00 +4°C° 0 mm 1 mps 581 mmHg 54%
    23:00 +2°C° 0 mm 2 mps 581 mmHg 50%

    18 December, Wednesday

    Time Temperature Precipitation Wind Pressure Humidity
    00:00 +2°C° 0 mm 2 mps 580 mmHg 45%
    01:00 +2°C° 0 mm 2 mps 580 mmHg 43%
    02:00 +2°C° 0 mm 2 mps 580 mmHg 42%
    03:00 +1°C° 0 mm 2 mps 579 mmHg 40%
    04:00 +1°C° 0 mm 2 mps 579 mmHg 39%
    05:00 +1°C° 0 mm 2 mps 580 mmHg 37%
    06:00 +1°C° 0 mm 2 mps 580 mmHg 36%
    07:00 +4°C° 0 mm 2 mps 581 mmHg 32%
    08:00 +7°C° 0 mm 1 mps 583 mmHg 29%
    09:00 +10°C° 0 mm 1 mps 584 mmHg 25%
    10:00 +11°C° 0 mm 1 mps 585 mmHg 25%
    11:00 +13°C° 0 mm 2 mps 585 mmHg 25%
    12:00 +14°C° 0 mm 2 mps 585 mmHg 26%
    13:00 +14°C° 0 mm 2 mps 584 mmHg 31%
    14:00 +13°C° 0 mm 2 mps 583 mmHg 35%
    15:00 +13°C° 0 mm 2 mps 583 mmHg 40%
    16:00 +9°C° 0 mm 2 mps 582 mmHg 50%
    17:00 +7°C° 0 mm 2 mps 581 mmHg 61%
    18:00 +4°C° 0 mm 2 mps 580 mmHg 71%
    19:00 +5°C° 0 mm 1 mps 580 mmHg 68%
    20:00 +5°C° 0 mm 1 mps 581 mmHg 65%
    21:00 +5°C° 0 mm 1 mps 581 mmHg 61%
    22:00 +5°C° 0 mm 1 mps 581 mmHg 59%
    23:00 +5°C° 0 mm 1 mps 580 mmHg 57%

    19 December, Thursday

    Time Temperature Precipitation Wind Pressure Humidity
    00:00 +4°C° 0 mm 1 mps 580 mmHg 54%
    01:00 +4°C° 0 mm 1 mps 580 mmHg 53%
    02:00 +4°C° 0 mm 1 mps 579 mmHg 53%
    03:00 +3°C° 0 mm 1 mps 579 mmHg 52%
    04:00 +3°C° 0 mm 1 mps 579 mmHg 50%
    05:00 +3°C° 0 mm 1 mps 579 mmHg 49%
    06:00 +3°C° 0 mm 1 mps 578 mmHg 48%
    07:00 +6°C° 0 mm 1 mps 580 mmHg 43%
    08:00 +8°C° 0 mm 1 mps 582 mmHg 38%
    09:00 +11°C° 0 mm 1 mps 583 mmHg 33%
    10:00 +12°C° 0 mm 2 mps 583 mmHg 34%
    11:00 +13°C° 0 mm 2 mps 583 mmHg 35%
    12:00 +14°C° 0 mm 3 mps 583 mmHg 36%
    13:00 +13°C° 0 mm 3 mps 583 mmHg 41%
    14:00 +13°C° 0 mm 3 mps 582 mmHg 45%
    15:00 +12°C° 0 mm 3 mps 581 mmHg 50%
    16:00 +10°C° 0 mm 2 mps 580 mmHg 63%
    17:00 +8°C° 0 mm 1 mps 579 mmHg 75%
    18:00 +5°C° 0 mm 1 mps 578 mmHg 88%
    19:00 +6°C° 0 mm 1 mps 579 mmHg 84%
    20:00 +5°C° 0 mm 0 mps 579 mmHg 80%
    21:00 +5°C° 0 mm 0 mps 580 mmHg 77%
    22:00 +5°C° 0 mm 0 mps 580 mmHg 76%
    23:00 +5°C° 0 mm 0 mps 579 mmHg 75%

    20 December, Friday

    Time Temperature Precipitation Wind Pressure Humidity
    00:00 +4°C° 0 mm 0 mps 579 mmHg 74%
    01:00 +4°C° 0 mm 0 mps 579 mmHg 72%
    02:00 +4°C° 0 mm 1 mps 578 mmHg 70%
    03:00 +4°C° 0 mm 1 mps 577 mmHg 67%
    04:00 +4°C° 0 mm 1 mps 577 mmHg 64%
    05:00 +4°C° 0 mm 1 mps 578 mmHg 61%
    06:00 +4°C° 0 mm 1 mps 578 mmHg 59%
    07:00 +6°C° 0 mm 1 mps 579 mmHg 55%
    08:00 +8°C° 0 mm 1 mps 580 mmHg 51%
    09:00 +10°C° 0 mm 1 mps 582 mmHg 47%
    10:00 +12°C° 0 mm 2 mps 582 mmHg 45%
    11:00 +13°C° 0 mm 2 mps 582 mmHg 44%
    12:00 +13°C° 0 mm 3 mps 582 mmHg 43%
    13:00 +13°C° 0 mm 3 mps 582 mmHg 47%
    14:00 +12°C° 0 mm 3 mps 581 mmHg 51%
    15:00 +12°C° 0 mm 3 mps 581 mmHg 54%
    16:00 +10°C° 0 mm 2 mps 580 mmHg 67%
    17:00 +8°C° 0 mm 1 mps 579 mmHg 79%
    18:00 +6°C° 0 mm 1 mps 578 mmHg 91%
    19:00 +6°C° 0 mm 1 mps 579 mmHg 89%
    20:00 +6°C° 0 mm 1 mps 579 mmHg 86%
    21:00 +6°C° 0 mm 1 mps 579 mmHg 84%
    22:00 +5°C° 0 mm 1 mps 579 mmHg 82%
    23:00 +5°C° 0 mm 1 mps 579 mmHg 80%
    Show more